THORAD AGENA D DEB, 4970

Orbit data source: Space-Track

THORAD AGENA D DEB, 4970 is space debris in SSO originally from a launch on Wed, 08 Apr 1970 UTC launched from the Air Force Western Test Range (AFWTR). Debris objects in space refer to the collection of defunct objects orbiting the Earth. Examples of debris include non-operational satellites, rocket bodies, and fragments generated from explosions, collisions, or faulty payload assembly.

Loading next visibility...
Identifier
4970, 1970-025GQ
Orbit
SSO
Country
Flag of USUS
Related business
Manufacturer
Unknown
Mission
Spacecraft
Bus & Motor
Unknown
Mass
Unknown
Launch date (UTC)
1970-04-08 (56 years ago)
Launch vehicle
Unknown
Launch site
Air Force Western Test Range (AFWTR)
Object type
Payload
Rocket body
Debris
Shape & HBR
Unknown shape, 0.1 m
Radar Cross Section
Medium (>0.1 m² and <1 m²)

Expand to show TLE details & history
Last TLE update: 2 days ago

TLE from 2 days ago
0 THORAD AGENA D DEB
1 04970U 70025GQ  26254.45516892  .00000289  00000-0  44758-3 0  9993
2 04970  99.9609 220.7525 0038039  14.6707 112.4792 13.59991327786281
Epoch: 2026-09-11T10:55Z
TLE epoch observation values (Epoch: 2026-09-11T10:55:26.594Z)
Latitude
51.4368°
Longitude
-100.92715°
Altitude
1,054.786 km
Speed
7.324 km/s
True Right ascension
03h 33m 38s
True Declination
51° 16' 33"
Sunlit
Object was in daylight at epoch
Visualization orbit readout
Latitude
Unknown
Longitude
Unknown
Altitude
Unknown
Speed
Unknown
Apparent Right ascension
Unknown
Apparent Declination
Unknown
Sunlit
N/A
Visualization observer readout
Local Sidereal Time
03:32:11
Azimuth
Unknown
Elevation
Unknown
Doppler factor
Unknown
Orbital elements
Apogee altitude
1,061.217 km
Perigee altitude
1,004.834 km
Semi-major axis
7,411.162 km
Eccentricity
0.0038
Inclination
99.9609°
RAAN
220.7525°
Arg. of periapsis
14.6707°
True anomaly
112.88124°
Mean anomaly
112.4792°
Eccentric anomaly
112.68029°
Mean motion
3.40184 °/min
Orbital period
105.83 mins
BSTAR
0.00044758
Loading maneuver chart data...
Computing Atmospheric mass density...

Documentation

Showing up to 5 results
|